Time,TemperatureF,DewpointF,PressureIn,WindDirection,WindDirectionDegrees,WindSpeedMPH,WindSpeedGustMPH,Humidity,HourlyPrecipIn,Conditions,Clouds,dailyrainin,SoftwareType,DateUTC
2013-07-29 00:01:00,87.0,46.0,29.72,SSE,154,0.0,1.0,24,0.00,,,0.00,,2013-07-29 07:01:00,
2013-07-29 00:22:00,86.0,46.0,29.72,South,179,2.0,4.0,25,0.00,,,0.00,,2013-07-29 07:22:00,
2013-07-29 00:43:00,85.0,47.0,29.72,SW,229,0.0,3.0,27,0.00,,,0.00,,2013-07-29 07:43:00,
2013-07-29 00:53:00,85.0,48.0,29.72,SW,230,1.0,2.0,28,0.00,,,0.00,,2013-07-29 07:53:00,
2013-07-29 01:11:00,83.0,47.0,29.72,SSW,209,0.0,1.0,28,0.00,,,0.00,,2013-07-29 08:11:00,
2013-07-29 01:52:00,83.0,47.0,29.72,South,173,1.0,2.0,28,0.00,,,0.00,,2013-07-29 08:52:00,
2013-07-29 02:02:00,83.0,47.0,29.72,South,174,0.0,0.0,28,0.00,,,0.00,,2013-07-29 09:02:00,
2013-07-29 02:12:00,83.0,47.0,29.72,South,173,0.0,0.0,29,0.00,,,0.00,,2013-07-29 09:12:00,
2013-07-29 02:22:00,82.0,47.0,29.72,South,173,1.0,1.0,30,0.00,,,0.00,,2013-07-29 09:22:00,
2013-07-29 02:33:00,82.0,48.0,29.72,South,173,0.0,1.0,31,0.00,,,0.00,,2013-07-29 09:33:00,
2013-07-29 02:43:00,81.0,47.0,29.72,South,188,0.0,1.0,31,0.00,,,0.00,,2013-07-29 09:43:00,
2013-07-29 02:53:00,80.0,47.0,29.72,SSW,204,0.0,0.0,31,0.00,,,0.00,,2013-07-29 09:53:00,
2013-07-29 03:02:00,80.0,48.0,29.72,SSW,204,0.0,1.0,33,0.00,,,0.00,,2013-07-29 10:02:00,
2013-07-29 03:12:00,80.0,49.0,29.72,SSW,202,0.0,0.0,34,0.00,,,0.00,,2013-07-29 10:12:00,
2013-07-29 03:43:00,79.0,47.0,29.72,SSE,160,0.0,0.0,33,0.00,,,0.00,,2013-07-29 10:43:00,
2013-07-29 04:02:00,78.0,49.0,29.72,SSE,160,0.0,0.0,36,0.00,,,0.00,,2013-07-29 11:02:00,
2013-07-29 04:11:00,78.0,49.0,29.72,SSE,160,0.0,1.0,36,0.00,,,0.00,,2013-07-29 11:11:00,
2013-07-29 05:02:00,77.0,51.0,29.73,SE,137,0.0,1.0,40,0.00,,,0.00,,2013-07-29 12:02:00,
2013-07-29 05:12:00,76.0,49.0,29.74,SSE,148,0.0,0.0,39,0.00,,,0.00,,2013-07-29 12:12:00,
2013-07-29 05:33:00,76.0,50.0,29.74,SE,143,0.0,0.0,40,0.00,,,0.00,,2013-07-29 12:33:00,
2013-07-29 05:43:00,77.0,50.0,29.75,ESE,107,2.0,3.0,39,0.00,,,0.00,,2013-07-29 12:43:00,
2013-07-29 05:53:00,77.0,49.0,29.75,ESE,112,1.0,2.0,37,0.00,,,0.00,,2013-07-29 12:53:00,
2013-07-29 06:33:00,77.0,51.0,29.77,SSE,155,1.0,1.0,41,0.00,,,0.00,,2013-07-29 13:33:00,
2013-07-29 06:53:00,78.0,52.0,29.78,SSE,152,1.0,1.0,40,0.00,,,0.00,,2013-07-29 13:53:00,
2013-07-29 07:02:00,80.0,54.0,29.79,South,170,1.0,2.0,41,0.00,,,0.00,,2013-07-29 14:02:00,
2013-07-29 07:33:00,83.0,52.0,29.80,SSE,151,2.0,3.0,35,0.00,,,0.00,,2013-07-29 14:33:00,
2013-07-29 07:42:00,84.0,53.0,29.80,SSW,195,1.0,3.0,34,0.00,,,0.00,,2013-07-29 14:42:00,
2013-07-29 07:53:00,85.0,53.0,29.81,SE,145,1.0,2.0,34,0.00,,,0.00,,2013-07-29 14:53:00,
2013-07-29 09:53:00,96.0,63.0,29.83,South,185,7.0,10.0,34,0.00,,,0.00,,2013-07-29 16:53:00,
2013-07-29 10:53:00,99.0,59.0,29.83,SE,133,4.0,5.0,27,0.00,,,0.00,,2013-07-29 17:53:00,
2013-07-29 12:02:00,100.0,61.0,29.83,ENE,77,5.0,7.0,28,0.00,,,0.00,,2013-07-29 19:02:00,
2013-07-29 12:12:00,100.0,61.0,29.83,ESE,113,2.0,3.0,28,0.00,,,0.00,,2013-07-29 19:12:00,
2013-07-29 12:34:00,100.0,60.0,29.83,ESE,114,7.0,9.0,27,0.00,,,0.00,,2013-07-29 19:34:00,
2013-07-29 13:02:00,101.0,62.0,29.82,ESE,119,3.0,3.0,28,0.00,,,0.00,,2013-07-29 20:02:00,
2013-07-29 13:33:00,102.0,62.0,29.81,East,80,2.0,9.0,27,0.00,,,0.00,,2013-07-29 20:33:00,
2013-07-29 13:44:00,103.0,61.0,29.81,ESE,119,10.0,12.0,26,0.00,,,0.00,,2013-07-29 20:44:00,
2013-07-29 15:02:00,105.0,62.0,29.79,ESE,102,10.0,14.0,25,0.00,,,0.00,,2013-07-29 22:02:00,
2013-07-29 15:33:00,105.0,63.0,29.78,SSE,152,8.0,11.0,26,0.00,,,0.00,,2013-07-29 22:33:00,
2013-07-29 15:43:00,104.0,61.0,29.78,SE,139,6.0,6.0,25,0.00,,,0.00,,2013-07-29 22:43:00,
2013-07-29 15:53:00,105.0,63.0,29.77,SSE,156,5.0,7.0,26,0.00,,,0.00,,2013-07-29 22:53:00,
2013-07-29 16:02:00,105.0,62.0,29.77,SE,130,7.0,8.0,25,0.00,,,0.00,,2013-07-29 23:02:00,
2013-07-29 17:43:00,104.0,61.0,29.75,SSE,155,11.0,17.0,25,0.00,,,0.00,,2013-07-30 00:43:00,
2013-07-29 18:02:00,103.0,59.0,29.75,SE,135,13.0,17.0,24,0.00,,,0.00,,2013-07-30 01:02:00,
2013-07-29 19:02:00,101.0,56.0,29.76,SSE,162,7.0,12.0,23,0.00,,,0.00,,2013-07-30 02:02:00,
2013-07-29 19:12:00,101.0,56.0,29.76,SE,137,9.0,14.0,23,0.00,,,0.00,,2013-07-30 02:12:00,
2013-07-29 19:33:00,99.0,56.0,29.77,SSE,154,7.0,9.0,24,0.00,,,0.00,,2013-07-30 02:33:00,
2013-07-29 19:52:00,98.0,56.0,29.78,South,172,5.0,14.0,25,0.00,,,0.00,,2013-07-30 02:52:00,
2013-07-29 20:33:00,95.0,56.0,29.79,South,183,4.0,8.0,27,0.00,,,0.00,,2013-07-30 03:33:00,
2013-07-29 20:43:00,94.0,56.0,29.80,South,172,5.0,9.0,28,0.00,,,0.00,,2013-07-30 03:43:00,
2013-07-29 20:52:00,94.0,57.0,29.80,South,173,4.0,9.0,29,0.00,,,0.00,,2013-07-30 03:52:00,
2013-07-29 21:02:00,93.0,56.0,29.80,South,171,5.0,8.0,29,0.00,,,0.00,,2013-07-30 04:02:00,
2013-07-29 21:32:00,92.0,56.0,29.82,SSE,165,3.0,3.0,30,0.00,,,0.00,,2013-07-30 04:32:00,
2013-07-29 21:43:00,92.0,57.0,29.83,SSE,155,2.0,4.0,31,0.00,,,0.00,,2013-07-30 04:43:00,
2013-07-29 21:52:00,91.0,56.0,29.83,SSW,206,3.0,5.0,31,0.00,,,0.00,,2013-07-30 04:52:00,
2013-07-29 22:02:00,91.0,57.0,29.83,SSE,157,2.0,4.0,32,0.00,,,0.00,,2013-07-30 05:02:00,
2013-07-29 22:45:00,91.0,59.0,29.84,ESE,108,6.0,11.0,34,0.00,,,0.00,,2013-07-30 05:45:00,
2013-07-29 22:52:00,91.0,59.0,29.84,ESE,118,7.0,9.0,34,0.00,,,0.00,,2013-07-30 05:52:00,
2013-07-29 23:01:00,91.0,59.0,29.85,SE,127,7.0,11.0,34,0.00,,,0.00,,2013-07-30 06:01:00,
2013-07-29 23:32:00,90.0,58.0,29.85,ESE,112,4.0,11.0,34,0.00,,,0.00,,2013-07-30 06:32:00,
2013-07-29 23:52:00,89.0,58.0,29.85,SE,133,6.0,7.0,35,0.00,,,0.00,,2013-07-30 06:52:00,